OEBH

Details ICAO OEBH (BHH)
Name BISHA
Region Saudi Arabia
Timezone Asia/Riyadh (UTC+3.0)
Plans Departing 6
Arriving 13
Stats Elevation 3,887 ft / 1,185 m (AMSL)
Location 19.984139° 42.622845°
Runways 1
Magnetic Variation 2.981° E
Sunrise 2018-05-21 02:33:02 UTC / 2018-05-21 05:33:02 Local
Sunset 2018-05-21 15:42:00 UTC / 2018-05-21 18:42:00 Local
Advertisement - Login to hide

Runways

ID Width Length Bearing (true) Bearing (mag) Surface Threshold Offset Overrun Length
18 147 ft / 45 m 10,066 ft / 3,068 m 185.82° 182.84° Asphalt 0 ft / 0 m 990 ft / 302 m
36 147 ft / 45 m 10,066 ft / 3,068 m 5.82° 2.84° Asphalt 0 ft / 0 m 990 ft / 302 m

Approach Navaids

Runway Type Ident Frequency Range Bearing (true) Bearing (mag) Slope Elevation
18 Localiser IBSH 110.10 MHz 18 nm / 33 km 185.39° 182.41° - 3,887 ft / 1,185 m (AMSL)
18 Glidescope IBSH 110.10 MHz 10 nm / 19 km 185.82° 182.84° 3.00° 3,887 ft / 1,185 m (AMSL)
18 DME IBSH 110.10 MHz 18 nm / 33 km - - - 3,887 ft / 1,185 m (AMSL)

Map

Weather


0- 5 10 15 20 25 30 35+ Temperature / ° C

Clouds and Precipitation
Forecast for 2018-05-21 18:00 UTC. Updated 20 minutes ago

Ground ~20,000 ft ~40,000 ft Winds

METAR

OEBH 211700Z 07012KT 9999 FEW030 31/07 Q1015 NOSIG

TAF

Not found

Frequencies

Unicom 122.80 MHz CTAF
Warning: Do not use this data for real-world aviation or navigation. No guarantee of current accuracy is given.